Flag Weather past 2 weeks in Greater Sudbury, Ontario, Canada

Now
-4 °F

Light snow. Mostly cloudy.


Feels Like: -19 °F
Forecast: 3 / 15 °F
Wind: 8 mph from Northwest

Location: Sudbury

Current Time: Nov 28, 2014 at 7:17:00 AM

Latest Report: Nov 28, 2014 at 6:00 AM


Visibility: 15 mi

Pressure: 30.26 "Hg

Humidity: 84%

Dew point: -8 °F

Location of Greater SudburyLocation

Historic Weather in Greater Sudbury — Graph

°F

Greater Sudbury temperature yesterday

Maximum temperature yesterday: 21 °F (at 2:00 PM)
Minimum temperature yesterday: 7 °F (at 10:55 PM)
Average temperature yesterday: 17 °F

Past Weeks' High & Low Weather Summary

 TemperatureHumidityPressure
High46 °F (Nov 24, 10:00 AM)100% (Nov 17, 7:00 AM)30.32 "Hg (Nov 17, 7:00 AM)
Low-4 °F (Nov 28, 6:00 AM)54% (Nov 14, 1:00 PM)28.90 "Hg (Nov 24, 10:00 AM)
Average22 °F86%29.86 "Hg
* Reported Nov 13 6:00 AM — Nov 28 6:00 AM, Greater Sudbury, Weather by CustomWeather, © 2014

Note: Actual official high and low records may vary slightly from our data, if they occured in-between our weather recording intervals... More about our weather records

Advertising

Greater Sudbury weather history for previous 24 hours

 ConditionsComfort  
Time TempWeatherWind HumidityBarometerVisibility
6:00 AM
Nov 28
-4 °FLight snow. Mostly cloudy.8 mph84%30.26 "Hg15 mi
5:00 AM-2 °FLight snow. Ice fog.9 mph84%30.26 "Hg4 mi
4:00 AM0 °FLight snow. Mostly cloudy.9 mph78%30.24 "Hg15 mi
3:00 AM0 °FLight snow. Low clouds.9 mph78%30.22 "Hg15 mi
2:00 AM0 °FLight snow. Low clouds.10 mph84%30.22 "Hg15 mi
1:00 AM1 °FLight snow. Overcast.13 mph78%30.21 "Hg15 mi
12:00 AM3 °FLight snow. Passing clouds.14 mph85%30.19 "Hg15 mi
11:00 PM
Nov 27
7 °FLight snow. Passing clouds.10 mph78%30.19 "Hg15 mi
10:55 PM7 °FLight snow. Passing clouds.10 mph78%30.19 "Hg15 mi
10:00 PM10 °FLight snow. Ice fog.12 mph85%30.17 "Hg2 mi
9:00 PM14 °FLight snow. Ice fog.12 mph85%30.16 "Hg1 mi
8:00 PM18 °FLight snow. Ice fog.6 mph93%30.15 "Hg2 mi
7:00 PM18 °FLight snow. Ice fog.2 mph93%30.14 "Hg2 mi
6:00 PM19 °FLight snow. Overcast.No wind86%30.14 "Hg2 mi
5:00 PM19 °FLight snow. Mostly cloudy.3 mph93%30.13 "Hg2 mi
4:00 PM21 °FLight snow. Partly sunny.2 mph80%30.13 "Hg4 mi
3:00 PM21 °FLight snow. Overcast.7 mph80%30.12 "Hg4 mi
2:00 PM21 °FLight snow. Mostly cloudy.6 mph80%30.11 "Hg4 mi
1:00 PM19 °FLight snow. Ice fog.6 mph73%30.12 "Hg15 mi
12:00 PM19 °FMore clouds than sun.5 mph73%30.14 "Hg20 mi
11:00 AM19 °FMore clouds than sun.7 mph73%30.15 "Hg20 mi
10:00 AM18 °FPartly sunny.6 mph79%30.14 "Hg20 mi
9:00 AM16 °FPartly sunny.7 mph86%30.14 "Hg20 mi
8:00 AM16 °FPartly sunny.8 mph86%30.13 "Hg20 mi
7:00 AM16 °FPassing clouds.8 mph86%30.13 "Hg15 mi
Weather by CustomWeather, © 2014

See weather overviewHow to use our weather pages